Weather History for KTEB - August, 2013

Change the Weather History Date:

Friday, August 23, 2013

  Actual Average Record
Temperature  
Mean Temperature 76 °F -  
Max Temperature 82 °F 81 °F 91 °F (1996)
Min Temperature 68 °F 63 °F 55 °F (1999)
Cooling Degree Days 11    
Growing Degree Days 26 (Base 50)    
Moisture  
Dew Point 58 °F    
Average Humidity 58    
Maximum Humidity 81    
Minimum Humidity 37    
Precipitation  
Precipitation 0.00 in - - ()
Sea Level Pressure  
Sea Level Pressure 29.97 in    
Wind  
Wind Speed 5 mph (North)    
Max Wind Speed 12 mph    
Max Gust Speed 23 mph    
Visibility 10 miles    
Events      
Averages and records for this station are not official NWS values.
T = Trace of Precipitation, MM = Missing Value Source: NWS Daily Summary

Daily Weather History Graph

Daily Weather History Graph

Search for Another Location

Airport or City:

Trip Planner

Search our weather history database for the weather conditions in past years. The results will help you decide how hot, cold, wet, or windy it might be!

Date:

Astronomy

Aug. 23, 2013 Rise Set
Actual Time 6:14 AM EDT 7:42 PM EDT
Civil Twilight 5:45 AM EDT 8:11 PM EDT
Nautical Twilight 5:10 AM EDT 8:45 PM EDT
Astronomical Twilight 4:34 AM EDT 9:22 PM EDT
Moon 8:57 PM EDT (8/23) 9:08 AM EDT (8/23)
Length of Visible Light 14h 25m
Length of Day
13h 27m
Waning Gibbous, 91% of the Moon is Illuminated
Aug 23
Waning Gibbous
Aug 28
Last Quarter
Sep 5
New
Sep 12
First Quarter
Sep 19
Full

Hourly Weather History & Observations

Time (EDT) Temp. Heat Index Dew Point Humidity Pressure Visibility Wind Dir Wind Speed Gust Speed Precip Events Conditions
12:51 AM 72.0 °F - 66.0 °F 81% 29.88 in 10.0 mi NNW 3.5 mph - N/A   Clear
1:51 AM 72.0 °F - 64.9 °F 78% 29.88 in 10.0 mi Calm Calm - N/A   Clear
2:51 AM 72.0 °F - 64.9 °F 78% 29.87 in 10.0 mi North 3.5 mph - N/A   Scattered Clouds
3:51 AM 72.0 °F - 64.9 °F 78% 29.87 in 10.0 mi NNW 3.5 mph - N/A   Mostly Cloudy
4:51 AM 71.1 °F - 64.9 °F 81% 29.88 in 10.0 mi NNW 6.9 mph - N/A   Clear
5:51 AM 70.0 °F - 64.0 °F 81% 29.91 in 10.0 mi North 3.5 mph - N/A   Clear
6:51 AM 70.0 °F - 64.0 °F 81% 29.94 in 10.0 mi Calm Calm - N/A   Clear
7:51 AM 71.1 °F - 64.0 °F 78% 29.96 in 10.0 mi North 5.8 mph - N/A   Clear
8:51 AM 73.9 °F - 62.1 °F 66% 29.96 in 10.0 mi NNE 9.2 mph - N/A   Clear
9:51 AM 75.0 °F - 57.0 °F 53% 29.98 in 10.0 mi North 9.2 mph 17.3 mph N/A   Clear
10:51 AM 79.0 °F - 55.0 °F 44% 29.98 in 10.0 mi North 11.5 mph 16.1 mph N/A   Clear
11:51 AM 80.1 °F 80.0 °F 54.0 °F 40% 29.98 in 10.0 mi North 9.2 mph - N/A   Clear
12:51 PM 80.1 °F 79.9 °F 53.1 °F 39% 29.98 in 10.0 mi North 8.1 mph 17.3 mph N/A   Clear
1:51 PM 80.1 °F 79.9 °F 53.1 °F 39% 29.99 in 10.0 mi NNW 6.9 mph 19.6 mph N/A   Clear
2:51 PM 80.1 °F 80.1 °F 55.0 °F 42% 29.98 in 10.0 mi Variable 4.6 mph - N/A   Clear
3:51 PM 82.0 °F 81.2 °F 53.1 °F 37% 29.98 in 10.0 mi North 10.4 mph 23.0 mph N/A   Clear
4:51 PM 79.0 °F - 55.0 °F 44% 29.98 in 10.0 mi NE 8.1 mph - N/A   Clear
5:51 PM 78.1 °F - 55.0 °F 45% 29.98 in 10.0 mi NNE 8.1 mph 16.1 mph N/A   Clear
6:51 PM 78.1 °F - 55.0 °F 45% 30.00 in 10.0 mi NE 9.2 mph - N/A   Clear
7:51 PM 75.9 °F - 54.0 °F 46% 30.02 in 10.0 mi NNE 4.6 mph - N/A   Clear
8:51 PM 73.9 °F - 55.0 °F 52% 30.05 in 10.0 mi North 3.5 mph - N/A   Clear
9:51 PM 71.1 °F - 54.0 °F 55% 30.07 in 10.0 mi North 4.6 mph - N/A   Clear
10:51 PM 70.0 °F - 54.0 °F 57% 30.08 in 10.0 mi Calm Calm - N/A   Clear
11:51 PM 68.0 °F - 53.1 °F 59% 30.10 in 10.0 mi North 4.6 mph - N/A   Clear